www.pogodaiklimat.ru

Погода и климат >> Архив погоды >> Бразилия >> Парана >> Планарту


ПОГОДА в Планарту

  • Прогноз погоды в Планарту
  • Монитор погоды в Планарту

АРХИВ ПОГОДЫ в Планарту

Время (UTC), дата Ветер
(напр.,м/с)
 
Видим.   Явления Облачность Т
(С)
Тd
(С)
f
(%)
Тe
(С)
Тes
(С)
Комфортность P
(гПа)
Po
(гПа)
Тmin
(С)
Tmax
(С)
R
(мм)
R24
(мм)
S
(см)
04 13.06 штиль 0
{3}
н/о н/о +19.1 +18 +18 1018.3 971.9
05 13.06 штиль 0 н/о н/о +18.8 +18 +18 1018.5 972.0
07 13.06 штиль 0 н/о н/о +17.5 +18 +18 1018.4 971.7
08 13.06 штиль 0
{2}
н/о н/о +17.3 +17 +17 1018.4 971.7
09 13.06 штиль 0
{3}
н/о н/о +17.6 +18 +18 1018.7 972.0
10 13.06 штиль 0
{2}
н/о н/о +17.2 +17 +17 1019.3 972.5
11 13.06 штиль 0 н/о н/о +18.6 +18 +18 1019.4 972.8
12 13.06 штиль 0
{3}
н/о н/о +21.2 +12.8 59 +23 +23 комфорт 1019.4 973.2
13 13.06 В 2
{4}
н/о н/о +22.6 -24.1 3 +20 +20 1019.2 973.3
14 13.06 штиль 0
{4}
н/о н/о +24.4 -23.7 3 +21 +21 комфорт 1018.6 973.0
15 13.06 СВ 1
{4}
н/о н/о +26.0 -22.6 3 +22 +22 комфорт 1017.5 972.1
16 13.06 штиль 0
{3}
н/о н/о +27.3 -21.7 3 +23 +23 комфорт 1016.1 971.0
17 13.06 С 1
{4}
н/о н/о +28.0 -21.3 3 +24 +24 комфорт 1014.7 969.8
18 13.06 С 1
{4}
н/о н/о +28.1 -21.2 3 +24 +24 комфорт 1013.8 968.9
19 13.06 штиль 0
{4}
н/о н/о +27.3 -21.7 3 +23 +23 комфорт 1013.9 968.9
20 13.06 штиль 0
{3}
н/о н/о +26.3 -22.4 3 +22 +22 комфорт 1014.2 969.0
21 13.06 штиль 0 н/о н/о +24.4 -23.7 3 +21 +21 комфорт 1014.9 969.4
22 13.06 штиль 0 н/о н/о +21.9 -25.4 3 +19 +19 1015.9 970.0
23 13.06 штиль 0 н/о н/о +21.6 -25.6 3 +19 +19 1016.1 970.1
00 14.06 штиль 0 н/о н/о +21.6 -25.6 3 +19 +19 1016.5 970.5
02 14.06 штиль 0 н/о н/о +19.9 -7.9 15 +19 +19 1017.6 971.3
03 14.06 штиль 0 н/о н/о +19.3 +14.8 75 +21 +21 комфорт 1017.7 971.3
04 14.06 штиль 0
{2}
н/о н/о +19.6 +18.9 96 +22 +22 комфорт 1017.6 971.3
05 14.06 штиль 0
{2}
н/о н/о +18.8 +18 +18 1017.7 971.2
06 14.06 штиль 0
{3}
н/о н/о +19.3 +18 +18 1017.6 971.2
07 14.06 штиль 0 н/о н/о +18.8 +18 +18 1017.7 971.2
08 14.06 штиль 0 н/о н/о +18.7 +18 +18 1017.8 971.3
09 14.06 штиль 0 н/о н/о +18.2 +18 +18 1018.1 971.5
10 14.06 штиль 0 н/о н/о +17.9 +18 +18 1019.1 972.4
11 14.06 штиль 0 н/о н/о +19.4 +18 +18 1019.3 972.9
12 14.06 штиль 0
{3}
н/о н/о +22.1 +16.1 69 +26 +26 душно 1019.4 973.4
13 14.06 штиль 0
{4}
н/о н/о +23.2 -21.7 4 +20 +20 1019.7 973.8
14 14.06 штиль 0
{3}
н/о н/о +25.2 -23.1 3 +21 +21 комфорт 1019.3 973.7
15 14.06 штиль 0
{2}
н/о н/о +26.5 -22.3 3 +22 +22 комфорт 1018.5 973.2
16 14.06 штиль 0
{3}
н/о н/о +28.1 -21.2 3 +24 +24 комфорт 1017.2 972.2
17 14.06 СЗ 3
{5}
н/о н/о +27.7 -21.4 3 +23 +23 комфорт 1016.4 971.3
18 14.06 СЗ 1
{5}
н/о н/о +28.1 -21.2 3 +24 +24 комфорт 1015.8 970.8
19 14.06 штиль 0
{4}
н/о н/о +27.9 -21.3 3 +24 +24 комфорт 1015.4 970.4
20 14.06 штиль 0
{2}
н/о н/о +27.5 -21.6 3 +23 +23 комфорт 1015.5 970.5
21 14.06 штиль 0 н/о н/о +25.4 -23.0 3 +22 +22 комфорт 1016.3 970.9
22 14.06 штиль 0 н/о н/о +22.4 -12.0 9 +20 +20 1017.2 971.3
23 14.06 штиль 0
{2}
н/о н/о +22.1 -20.2 5 +20 +20 1017.5 971.6
00 15.06 штиль 0 н/о н/о +21.9 -25.4 3 +19 +19 1017.8 971.8
01 15.06 штиль 0
{2}
н/о н/о +20.3 -2.3 22 +20 +20 1018.4 972.1
02 15.06 штиль 0
{2}
н/о н/о +19.7 +19 +19 1018.7 972.3
03 15.06 штиль 0 н/о н/о +19.9 +16.8 82 +22 +22 комфорт 1018.7 972.4
04 15.06 штиль 0 н/о н/о +19.1 +18 +18 1018.8 972.3
05 15.06 штиль 0
{2}
н/о н/о +19.4 +18 +18 1018.6 972.2
06 15.06 штиль 0
{2}
н/о н/о +19.3 +18 +18 1018.3 971.9
07 15.06 штиль 0 н/о н/о +19.3 +18 +18 1017.9 971.5
08 15.06 штиль 0 н/о н/о +19.2 +18 +18 1017.9 971.5
09 15.06 штиль 0 н/о н/о +18.8 +18 +18 1018.4 971.9
10 15.06 штиль 0 н/о н/о +18.8 +18 +18 1018.9 972.4
11 15.06 штиль 0
{2}
н/о н/о +19.2 +18 +18 1019.6 973.1
12 15.06 штиль 0
{3}
н/о н/о +20.0 +19 +19 1020.3 973.9
13 15.06 штиль 0
{3}
н/о н/о +23.2 -12.4 8 +20 +20 1020.0 974.1
14 15.06 СВ 1
{4}
н/о н/о +23.5 -24.2 3 +20 +20 1019.8 974.0
15 15.06 штиль 0
{3}
н/о н/о +26.3 -22.4 3 +22 +22 комфорт 1018.6 973.2
16 15.06 штиль 0
{3}
н/о н/о +26.9 -22.0 3 +23 +23 комфорт 1017.4 972.2
17 15.06 штиль 0 н/о н/о +27.2 -21.8 3 +23 +23 комфорт 1016.5 971.4
18 15.06 штиль 0 н/о н/о +28.2 -21.1 3 +24 +24 комфорт 1015.7 970.7
19 15.06 штиль 0 н/о н/о +27.2 -21.8 3 +23 +23 комфорт 1015.6 970.5
20 15.06 штиль 0
{1}
н/о н/о +25.4 -23.0 3 +22 +22 комфорт 1016.1 970.7
21 15.06 штиль 0 н/о н/о +22.9 -24.6 3 +20 +20 1016.8 971.0
22 15.06 штиль 0
{2}
н/о н/о +21.5 -20.4 5 +19 +19 1017.6 971.6
23 15.06 штиль 0 н/о н/о +21.1 -12.2 10 +20 +20 1018.5 972.4
00 16.06 штиль 0
{2}
н/о н/о +20.7 -3.7 19 +20 +20 1019.2 973.0
01 16.06 штиль 0
{2}
н/о н/о +20.5 -4.7 18 +20 +20 1019.7 973.4
02 16.06 штиль 0
{3}
н/о н/о +20.6 -8.9 13 +20 +20 1019.9 973.6
03 16.06 штиль 0
{3}
н/о н/о +20.0 -9.4 13 +19 +19 1020.4 974.0
04 16.06 штиль 0
{3}
н/о н/о +20.1 -11.2 11 +19 +19 1020.4 974.0
05 16.06 штиль 0
{3}
н/о н/о +19.7 -8.1 14 +19 +19 1020.5 974.1
06 16.06 В 2
{4}
н/о н/о +19.6 -8.1 15 +20 +20 1020.1 973.7
07 16.06 В 1
{4}
н/о н/о +19.3 -9.4 13 +21 +21 комфорт 1020.0 973.5
08 16.06 В 1
{3}
н/о н/о +18.9 -7.5 16 +20 +20 1019.8 973.3
09 16.06 штиль 0
{4}
н/о н/о +18.3 -0.7 28 +18 +18 1021.0 974.3
10 16.06 штиль 0 н/о н/о +16.3 +16 +16 1022.0 975.0
11 16.06 штиль 0 н/о н/о +18.5 +18 +18 1022.1 975.4
12 16.06 штиль 0
{3}
н/о н/о +21.5 -0.5 23 +21 +21 комфорт 1022.7 976.4
13 16.06 штиль 0
{3}
н/о н/о +21.5 -15.6 7 +20 +20 1022.9 976.6
14 16.06 штиль 0 н/о н/о +21.9 -14.8 7 +20 +20 1022.6 976.4
15 16.06 штиль 0 н/о н/о +23.8 -23.4 3 +20 +20 1021.5 975.6
16 16.06 штиль 0 н/о н/о +25.7 -22.8 3 +22 +22 комфорт 1020.1 974.6
17 16.06 штиль 0 н/о н/о +27.3 -21.7 3 +23 +23 комфорт 1018.9 973.7
18 16.06 штиль 0 н/о н/о +27.7 -21.5 3 +23 +23 комфорт 1018.4 973.3
19 16.06 штиль 0 н/о н/о +27.4 -21.7 3 +23 +23 комфорт 1018.5 973.3
20 16.06 штиль 0 н/о н/о +25.1 -23.2 3 +21 +21 комфорт 1019.2 973.6
21 16.06 штиль 0
{1}
н/о н/о +22.4 -25.0 3 +19 +19 1019.9 973.9
22 16.06 штиль 0 н/о н/о +21.5 -25.6 3 +19 +19 1020.4 974.2
23 16.06 штиль 0 н/о н/о +21.2 -25.8 3 +19 +19 1020.6 974.4
00 17.06 штиль 0 н/о н/о +20.7 -26.2 3 +19 +19 1021.0 974.7
01 17.06 штиль 0 н/о н/о +19.7 -26.1 3 +19 +19 1021.4 974.9
02 17.06 штиль 0 н/о н/о +19.5 -17.9 7 +19 +19 1021.7 975.2
03 17.06 штиль 0 н/о н/о +19.1 -8.0 15 +19 +19 1022.0 975.4
05 17.06 штиль 0 н/о н/о +17.7 +18 +18 1022.0 975.2
06 17.06 штиль 0 н/о н/о +17.1 +17 +17 1021.8 974.9
07 17.06 штиль 0 н/о н/о +18.3 +18 +18 1021.5 974.8
08 17.06 штиль 0
{2}
н/о н/о +17.7 +18 +18 1021.4 974.6
09 17.06 штиль 0
{3}
н/о н/о +16.8 +17 +17 1021.7 974.7
10 17.06 штиль 0
{3}
н/о н/о +16.3 +16 +16 1022.3 975.2
11 17.06 штиль 0 н/о н/о +17.3 +17 +17 1022.9 976.0
12 17.06 штиль 0
{3}
н/о н/о +19.8 +15.4 76 +22 +22 комфорт 1022.7 976.2
13 17.06 В 1
{4}
н/о н/о +21.3 -16.0 7 +20 +20 1022.8 976.5
14 17.06 штиль 0
{3}
н/о н/о +23.3 -24.4 3 +20 +20 1022.0 976.0
15 17.06 СВ 1
{3}
н/о н/о +24.9 -23.3 3 +21 +21 комфорт 1020.8 975.1
16 17.06 В 2
{4}
н/о н/о +25.9 -22.6 3 +22 +22 комфорт 1019.2 973.8
17 17.06 штиль 0
{4}
н/о н/о +26.6 -22.2 3 +22 +22 комфорт 1018.2 972.9
18 17.06 штиль 0 н/о н/о +26.6 -22.2 3 +22 +22 комфорт 1017.6 972.3
19 17.06 штиль 0
{2}
н/о н/о +25.5 -22.9 3 +22 +22 комфорт 1016.9 971.5
20 17.06 штиль 0
{2}
н/о н/о +23.9 -24.0 3 +21 +21 комфорт 1017.0 971.4
21 17.06 штиль 0 н/о н/о +21.0 -26.0 3 +19 +19 1017.5 971.4
22 17.06 штиль 0 н/о н/о +19.2 -12.6 10 +19 +19 1017.6 971.2
23 17.06 штиль 0 н/о н/о +19.7 -18.2 6 +19 +19 1017.7 971.4
00 18.06 штиль 0 н/о н/о +19.3 -15.2 8 +19 +19 1017.9 971.5
01 18.06 штиль 0 н/о н/о +19.1 -11.5 12 +19 +19 1018.1 971.7
02 18.06 штиль 0 н/о н/о +18.5 -5.0 20 +18 +18 1018.2 971.7
03 18.06 штиль 0
{1}
н/о н/о +17.6 +18 +18 1018.1 971.4
04 18.06 штиль 0 н/о н/о +17.6 +18 +18 1018.1 971.4
05 18.06 штиль 0 н/о н/о +16.4 +17 +17 1018.2 971.3
06 18.06 штиль 0
{2}
н/о н/о +16.4 +17 +17 1017.8 971.0
07 18.06 штиль 0
{2}
н/о н/о +16.1 +16 +16 1017.9 971.0
08 18.06 штиль 0
{2}
н/о н/о +15.6 +16 +16 1017.9 970.9
10 18.06 штиль 0
{3}
н/о н/о +16.0 +16 +16 1018.6 971.7
11 18.06 штиль 0
{3}
н/о н/о +17.4 +17 +17 1019.1 972.4
12 18.06 штиль 0
{2}
н/о н/о +19.6 +14.6 73 +21 +21 комфорт 1019.3 972.9
13 18.06 штиль 0
{4}
н/о н/о +20.0 +4.4 36 +20 +20 1019.6 973.2
14 18.06 СВ 1
{3}
н/о н/о +22.8 -24.7 3 +20 +20 1018.6 972.7
15 18.06 штиль 0
{3}
н/о н/о +23.7 -24.1 3 +20 +20 1017.6 971.9
16 18.06 С 1
{3}
н/о н/о +24.9 -23.3 3 +21 +21 комфорт 1016.5 971.0
17 18.06
{4}
н/о н/о +25.9 -22.7 3 1015.4 970.1
18 18.06 С 1
{3}
н/о н/о +25.8 -22.7 3 +22 +22 комфорт 1014.9 969.6
19 18.06 штиль 0
{4}
н/о н/о +24.5 -23.6 3 +21 +21 комфорт 1014.9 969.4
20 18.06 штиль 0
{2}
н/о н/о +23.6 -24.2 3 +20 +20 1014.8 969.2
21 18.06 штиль 0 н/о н/о +21.6 -25.5 3 +19 +19 1015.4 969.5
22 18.06 штиль 0 н/о н/о +20.0 -21.7 5 +19 +19 1015.9 969.7
23 18.06 штиль 0 н/о н/о +19.8 -20.8 5 +19 +19 1016.2 970.0
00 19.06 штиль 0 н/о н/о +19.1 -14.2 9 +19 +19 1017.0 970.6
01 19.06 штиль 0 н/о н/о +18.8 -10.6 13 +19 +19 1017.6 971.1
02 19.06 штиль 0 н/о н/о +18.0 -1.5 27 +18 +18 1017.8 971.2
03 19.06 штиль 0 н/о н/о +17.4 +17 +17 1017.9 971.2
04 19.06 штиль 0 н/о н/о +17.6 +18 +18 1017.9 971.2
05 19.06 штиль 0 н/о н/о +17.8 +18 +18 1017.6 971.0
06 19.06 штиль 0 н/о н/о +17.8 +18 +18 1017.5 970.9
07 19.06 штиль 0 н/о н/о +17.7 +18 +18 1017.4 970.8
08 19.06 штиль 0 н/о н/о +17.7 +18 +18 1017.4 970.8
09 19.06 штиль 0 н/о н/о +17.3 +17 +17 1017.4 970.7
10 19.06 штиль 0 н/о н/о +17.9 +18 +18 1018.4 971.8
11 19.06 штиль 0
{1}
н/о н/о +17.5 +18 +18 1018.7 972.0
12 19.06 штиль 0 н/о н/о +20.3 -11.3 11 +19 +19 1019.5 973.2
14 19.06 штиль 0 н/о н/о +21.9 -25.4 3 +19 +19 1019.8 973.7
15 19.06 штиль 0
{3}
н/о н/о +21.8 -18.8 5 +20 +20 1019.6 973.5
16 19.06 штиль 0 н/о н/о +21.7 -23.3 4 +19 +19 1019.4 973.3
17 19.06 штиль 0 н/о н/о +22.0 -14.9 7 +20 +20 1018.9 972.9
18 19.06 штиль 0 н/о н/о +21.8 -14.0 8 +20 +20 1018.4 972.4
19 19.06 штиль 0
{2}
н/о н/о +21.0 -2.6 20 +20 +20 1019.3 973.1
20 19.06 штиль 0
{2}
н/о н/о +19.6 +19 +19 1019.0 972.6
21 19.06 штиль 0 н/о н/о +18.5 +18 +18 1019.3 972.7 2
22 19.06 штиль 0 н/о н/о +18.3 +18 +18 1019.8 973.2
23 19.06 штиль 0 н/о н/о +18.2 +18 +18 1020.0 973.3 1
00 20.06 штиль 0 н/о н/о +18.2 +18 +18 1020.5 973.8
01 20.06 штиль 0 н/о н/о +17.9 +18 +18 1020.8 974.1 0.2
02 20.06 штиль 0
{2}
н/о н/о +17.4 +17 +17 1021.3 974.5
03 20.06 штиль 0 н/о н/о +17.1 +17 +17 1021.5 974.6
04 20.06 штиль 0 н/о н/о +16.3 +16 +16 1020.6 973.6
05 20.06 штиль 0
{2}
н/о н/о +16.0 +16 +16 1021.2 974.1

 

Местоположение метеостанции Планарту (Парана, Бразилия): широта -25.72 долгота -53.75 высота над уровнем моря 348 м.

В архиве по умолчанию представлена погода в Планарту за последнюю неделю. Архивные данные за месяц целиком и за предыдущие месяцы, начиная с января 2011 года, Вы можете получить, выбрав интересующий диапазон дат из раскрывающегося списка и нажав кнопку "Ввод!".


*Определитесь, кто Вы:
робот инопланетянин человек

Внимание! Время в таблицах - всемирное. Для получения местного времени необходимо прибавить поправку, которая равна -3 ч.

Смотрите также архив погоды в соседних городах и на ближайших метеорологических станциях:

Погода в Дионисио Серкейра (Парана, Бразилия) (63 км)
Погода в Дойс-Визиньюсе (Парана, Бразилия) (65 км)
Погода в Игуасу (Аргентина) (71 км)
Погода в Фос-ду-Игуасу (Парана, Бразилия) (74 км)
Погода в Фос-ду-Игуасу (Парана, Бразилия) (86 км)
Погода в Аэропорту Гуарани (Парагвай) (114 км)
Погода в Ново-Оризонти (Санта-Катарина, Бразилия) (118 км)
Погода в Сан-Мигель-ду-Осте (Санта-Катарина, Бразилия) (121 км)
Погода в Марешал-Кандиду-Рондоне (Парана, Бразилия) (135 км)
Погода в Кампина-да-Лагоа (Парана, Бразилия) (160 км)

Пояснения к столбцам:

Ветер - указаны скорость ветра в м/с - средняя за 10 мин, порывы в срок и между сроками (в фигурных скобках) и направление, откуда дует ветер: С - северный, СВ - северо-восточный, В - восточный, ЮВ - юго-восточный, Ю - южный, ЮЗ - юго-западный, З - западный, СЗ - северо-западный.
Видимость - горизонтальная дальность видимости в метрах или километрах. При видимости от 1 до 10 км при отсутствии осадков обычно наблюдается дымка, при ухудшении видимости до 1 км и менее - туман. В сухую погоду видимость может ухудшаться дымом, пылью или мглою.
Явления - указаны атмосферные явления, наблюдавшиеся в срок или в последний час перед сроком; фигурными скобками обозначены явления, наблюдавшиеся между сроками (за 1-3 часа до срока); квадратными скобками обозначены град или гололедные отложения с указанием их диаметра в мм.
Облачность - указаны через наклонную черту общая и нижняя облачность в баллах и высота нижней границы облаков в метрах; квадратными скобками обозначены формы облаков: Ci - перистые, Cs - перисто-слоистые, Cc - перисто-кучевые, Ac - высококучевые, As - высокослоистые, Sc - слоисто-кучевые, Ns - слоисто-дождевые, Cu - кучевые, Cb - кучево-дождевые. Подробнее классификацию облаков см. в Атласе облаков (PDF).
T - Температура воздуха - температура, измеренная на высоте 2 м над землей.
Td - Температура точки росы - температура, при понижении до которой содержащийся в воздухе водяной пар достигнет насыщения.
f - Относительная влажность воздуха - влажноcть воздуха, измеренная на высоте 2 м над землей.
Te - Эффективная температура - температура, которую ощущает одетый по сезону человек в тени. Характеристика душности погоды. При расчете учитывается влияние влажности воздуха и скорости ветра на теплоощущения человека.
Tes - Эффективная температура на солнце - температура, которую ощущает человек, с поправкой на солнечный нагрев. Характеристика знойности погоды. Зависит от высоты солнца над горизонтом, облачности и скорости ветра. Ночью, в пасмурную погоду, а также при ветре 12 м/с и более поправка равна нулю.
P - Атмосферное давление - приведенное к уровню моря атмосферное давление.
Po - Атмосферное давление - измеренное на уровне метеостанции атмосферное давление.
Tmin - Минимальная температура - минимум температуры воздуха на высоте 2 м над землей.
Tmax - Максимальная температура - максимум температуры воздуха на высоте 2 м над землей.
R - Количество осадков - Количество выпавших осадков за период времени, мм. При наведении курсора мыши на число - период времени, за который выпало указанное количество осадков.
R24 - Количество осадков - Количество выпавших осадков за 24 часа, мм.
S - Снежный покров - Высота снежного покрова, см. При наведении курсора мыши на число - состояние снежного покрова и степень покрытия местности в баллах.